Location: College Rock
(37.2713°N, 119.1740°W)
Time: 13:45:29
(UTC+00:00)

H-2A R/B - Pass Details

Date: 29 October 2020
Orbit: 528 x 653 km, 98.3° (Epoch: 01 December)

Event Time Altitude Azimuth Distance (km) Brightness Sun altitude
Rises 13:34:42 0° 16° (NNE) 2,915 6.1 -9.4°
Reaches altitude 10° 13:36:57 10° 19° (NNE) 1,985 5.3 -8.9°
Maximum altitude 13:41:14 64° 101° (ESE) 669 3.1 -8.1°
Drops below altitude 10° 13:45:19 10° 183° (S) 1,895 5.2 -7.3°
Sets 13:47:26 0° 187° (S) 2,770 6.0 -6.9°
